{"data":{"norad_id":65876,"epoch":"2026-09-20T06:39:26.608320Z","epoch_age_seconds":125290,"freshness":"FRESH","line1":"1 65876U 25223Y   26263.27739130  .00031017  00000+0  92426-3 0  9994","line2":"2 65876  53.1566 107.0890 0001332  68.3802 291.7342 15.34436252 54047","mean_motion":15.34436252,"eccentricity":0.0001332,"inclination_deg":53.1566,"raan_deg":107.089,"arg_perigee_deg":68.3802,"mean_anomaly_deg":291.7342,"bstar":0.00092426,"rev_number":5404,"period_min":93.845540870342,"perigee_km":461.68430817654,"apogee_km":463.50667931287,"semimajor_km":6840.7324937447,"source":"CELESTRAK","updated_at":"2026-09-21T09:00:35.753222Z"}}